Content
SEND FEEDBACK

Daily
Averages
Monthly
Summary
United Kingdom

LONDON, ENGLAND


Home > Europe > United Kingdom > England
Elevation: 203 feet     Latitude: 51 09N     Longitude: 000 11W

WEATHER
 
SELECT A DAY
Number of Records: 299,385;   Date Range: 7/1/96 - 12/16/14
 
SHARE

PRINT THIS DATA

[ ← Previous Day ]
WEATHER ALMANAC - MARCH 7, 2013
[ Next Day → ]
[ °C ]   °F
Weather ElementAverageHighLow
Temperature48.4 °F51.8 °F (12:50 pm)46.4 °F (12:50 am)
Dewpoint46.6 °F48.2 °F (11:50 am)42.8 °F (1:50 am)
Humidity93.4 %100 % (10:20 pm)87 % (1:50 am)
Barometer29.42 in29.50 in (12:50 am)29.39 in (12:50 pm)
Wind Speed4.5 mph6.9 mph (7:50 am)
Weather ElementAverage
Visibility2 mi
Wind DirectionENE (83.4 °)

Weather ElementTotal
Precipitation---
Heating Degree Days15.9 (Base 65)
Averaged from 47 records on March 7, 2013
WEATHER CONDITIONS BREAKOUT
WIND DIRECTION BREAKOUT
WEATHER BY HOUR - MARCH 7, 2013
[ °C ]   °F
Local TimeTemperatureDewpointHumidityBarometerVisibilityWind DirectionWind SpeedGust SpeedPrecipitationEventsConditions
12:50 AM46.4 °F44.6 °F93 %29.50 in2.5 miNorth (360°)3.5 mphRainLight Rain
1:20 AM46.4 °F44.6 °F93 %29.50 in2.5 miNE (40°)2.3 mphRainLight Rain
1:50 AM46.4 °F42.8 °F87 %29.50 in2.2 miEast (80°)3.5 mphRainLight Rain
2:20 AM46.4 °F44.6 °F93 %29.47 in1.9 miCalmRainLight Rain
2:50 AM46.4 °F44.6 °F93 %29.47 in1.9 miEast (80°)2.3 mphRainLight Rain
3:20 AM46.4 °F44.6 °F93 %29.47 in1.6 miNNE (20°)5.8 mphRainLight Rain
3:50 AM46.4 °F44.6 °F93 %29.44 in1.9 miNE (50°)3.5 mphRainLight Rain
4:20 AM46.4 °F44.6 °F93 %29.44 in1.9 miCalmRainLight Rain
4:50 AM46.4 °F44.6 °F93 %29.44 inVariable3.5 mphRainLight Rain
5:20 AM46.4 °F44.6 °F93 %29.44 in2.5 miVariable3.5 mphRainLight Rain
5:50 AM46.4 °F44.6 °F93 %29.44 in2.5 miCalmRainLight Rain
6:20 AM46.4 °F44.6 °F93 %29.44 in2.2 miCalmRainLight Rain
6:50 AM46.4 °F44.6 °F93 %29.44 in2.5 miNE (50°)4.6 mphRainLight Rain
7:20 AM46.4 °F44.6 °F93 %29.44 in1.9 miENE (70°)5.8 mphRainLight Rain
7:50 AM46.4 °F44.6 °F93 %29.44 in1.7 miENE (70°)6.9 mphRainLight Rain
8:20 AM46.4 °F44.6 °F93 %29.44 in1.6 miENE (70°)5.8 mphRainLight Rain
8:50 AM46.4 °F44.6 °F93 %29.44 in1.6 miENE (70°)5.8 mphRainLight Rain
9:20 AM46.4 °F44.6 °F93 %29.44 in1.6 miEast (80°)4.6 mphRainLight Rain
9:50 AM48.2 °F44.6 °F87 %29.44 in1.6 miENE (70°)4.6 mphRainLight Rain
10:20 AM48.2 °F44.6 °F87 %29.44 in1.6 miENE (60°)6.9 mphRainLight Rain
10:50 AM48.2 °F46.4 °F93 %29.44 in1.7 miENE (70°)4.6 mphRainLight Rain
11:20 AM48.2 °F46.4 °F93 %29.42 in1.9 miENE (70°)5.8 mphRainLight Rain
11:50 AM50.0 °F48.2 °F94 %29.42 inENE (70°)5.8 mphRainLight Rain
12:20 PM50.0 °F48.2 °F94 %29.42 inEast (90°)5.8 mphDrizzle
12:50 PM51.8 °F48.2 °F88 %29.39 inEast (80°)6.9 mphRainLight Rain
1:20 PM51.8 °F48.2 °F88 %29.39 in1.9 miENE (70°)6.9 mphDrizzle
1:50 PM50.0 °F48.2 °F94 %29.39 in1.9 miEast (80°)6.9 mphRainLight Rain
2:20 PM50.0 °F48.2 °F94 %29.39 inSE (130°)6.9 mphRainLight Rain
2:50 PM50.0 °F48.2 °F94 %29.39 inSE (140°)6.9 mphLight Drizzle
3:20 PM50.0 °F48.2 °F94 %29.39 inSE (130°)4.6 mphHaze
3:50 PM50.0 °F48.2 °F94 %29.39 in3.1 miSE (130°)5.8 mphHaze
4:20 PM50.0 °F48.2 °F94 %29.39 in3.1 miSE (130°)4.6 mphRainLight Rain
4:50 PM50.0 °F48.2 °F94 %29.39 in1.7 miESE (120°)5.8 mphHaze
5:20 PM50.0 °F48.2 °F94 %29.39 inESE (120°)5.8 mphHaze
5:50 PM50.0 °F48.2 °F94 %29.39 in1.1 miSE (130°)5.8 mphRainLight Rain
6:20 PM50.0 °F48.2 °F94 %29.39 in2.2 miESE (120°)4.6 mphLight Drizzle
6:50 PM50.0 °F48.2 °F94 %29.39 inESE (110°)4.6 mphLight Drizzle
7:20 PM50.0 °F48.2 °F94 %29.39 in1.9 miESE (110°)4.6 mphHaze
7:50 PM50.0 °F48.2 °F94 %29.39 inESE (120°)3.5 mphHaze
8:20 PM50.0 °F48.2 °F94 %29.39 inEast (90°)3.5 mphHaze
8:50 PM50.0 °F48.2 °F94 %29.39 in1.9 miEast (100°)4.6 mphHaze
9:20 PM50.0 °F48.2 °F94 %29.39 inEast (100°)4.6 mphHaze
9:50 PM50.0 °F48.2 °F94 %29.39 inESE (120°)4.6 mphLight Drizzle
10:20 PM48.2 °F48.2 °F100 %29.39 in1.6 miEast (80°)3.5 mphRainLight Rain
10:50 PM48.2 °F48.2 °F100 %29.39 in1.6 miENE (70°)4.6 mphRainLight Rain
11:20 PM48.2 °F48.2 °F100 %29.39 in1.5 miEast (90°)4.6 mphMostly Cloudy
11:50 PM48.2 °F48.2 °F100 %29.39 in1.5 miEast (80°)4.6 mphMostly Cloudy
Hourly data recorded from EGKK, located miles away from London, England







STORIES FROM OUR PARTNERS